DW6801 Weather Reports


time (UTC)temp
C
wind
direction
speed
KPH
gust
KPH
rain 1hr
cm
rain 24hr
cm
rain mn
cm
humidity
%
barometer
mb
20260903220519 15 254 4.8 19.3 0.00 1.04 0.00 88 1007.1
20260903220055 15 262 11.3 17.7 0.00 1.04 0.00 88 1007.1
20260903215520 15 273 12.9 22.5 0.00 1.04 1.04 88 1007.0
20260903215016 15 269 9.7 27.4 0.00 1.04 1.04 88 1007.0
20260903214534 15 280 12.9 27.4 0.00 1.04 1.04 88 1007.0
20260903214012 15 255 11.3 22.5 0.00 1.04 1.04 88 1007.1
20260903213512 15 273 16.1 22.5 0.00 1.04 1.04 88 1007.2
20260903213028 16 284 14.5 27.4 0.00 1.04 1.04 88 1007.2
20260903212503 16 236 17.7 29.0 0.00 1.04 1.04 89 1007.2
20260903212007 15 249 20.9 29.0 0.00 1.04 1.04 89 1007.2
20260903211506 15 254 17.7 30.6 0.00 1.04 1.04 89 1007.1
20260903211006 15 270 17.7 30.6 0.00 1.04 1.04 89 1007.0
20260903210507 15 232 17.7 24.1 0.00 1.04 1.04 89 1007.0
20260903210013 15 272 12.9 25.7 0.00 1.04 1.04 89 1007.0
20260903205507 16 273 14.5 25.7 0.00 1.04 1.04 89 1007.0
20260903205011 16 246 14.5 25.7 0.00 1.04 1.04 89 1007.0
20260903204522 16 260 9.7 25.7 0.00 1.04 1.04 89 1007.1
20260903204015 16 258 14.5 27.4 0.00 1.04 1.04 89 1007.1
20260903203517 16 246 16.1 27.4 0.00 1.04 1.04 89 1007.1
20260903203008 16 271 14.5 33.8 0.00 1.04 1.04 89 1007.0
20260903202504 16 235 14.5 33.8 0.00 1.04 1.04 89 1007.0
20260903202004 16 237 14.5 25.7 0.00 1.04 1.04 89 1007.0
20260903201510 16 296 14.5 25.7 0.00 1.04 1.04 89 1007.0
20260903201008 16 262 16.1 29.0 0.00 1.04 1.04 89 1007.0
20260903200510 16 275 16.1 29.0 0.00 1.04 1.04 88 1007.0
20260903200033 16 270 14.5 32.2 0.00 1.04 1.04 88 1007.0
20260903195509 16 299 19.3 32.2 0.00 1.04 1.04 88 1007.0
20260903195010 16 258 19.3 30.6 0.00 1.04 1.04 88 1007.0
20260903194535 16 259 20.9 33.8 0.00 1.04 1.04 88 1006.9
20260903194013 16 254 19.3 33.8 0.00 1.04 1.04 88 1006.8
20260903193513 16 254 20.9 33.8 0.00 1.04 1.04 88 1006.8
20260903193005 16 258 22.5 38.6 0.00 1.04 1.04 88 1006.7
20260903192504 16 250 17.7 38.6 0.00 1.04 1.04 88 1006.5
20260903192004 16 262 25.7 38.6 0.00 1.04 1.04 88 1006.5
20260903191513 16 257 25.7 37.0 0.00 1.04 1.04 88 1006.5
20260903191008 16 258 19.3 37.0 0.00 1.04 1.04 88 1006.4
20260903190508 16 236 17.7 37.0 0.00 1.04 1.04 88 1006.5
20260903190019 16 256 20.9 35.4 0.00 1.04 1.04 88 1006.4
20260903185513 16 236 16.1 33.8 0.00 1.04 1.04 88 1006.4
20260903185013 17 253 20.9 35.4 0.00 1.04 1.04 88 1006.4
20260903184527 17 244 22.5 35.4 0.00 1.04 1.04 89 1006.4
20260903184014 17 254 19.3 32.2 0.00 1.04 1.04 89 1006.4
20260903183515 17 244 20.9 30.6 0.00 1.04 1.04 90 1006.4
20260903183012 17 264 14.5 29.0 0.00 1.04 1.04 90 1006.4
20260903182506 17 246 17.7 30.6 0.00 1.04 1.04 90 1006.3
20260903182006 17 252 20.9 30.6 0.00 1.04 1.04 90 1006.2
20260903181513 17 226 17.7 32.2 0.00 1.04 1.04 90 1006.2
20260903181009 17 238 19.3 32.2 0.00 1.04 1.04 90 1006.1
20260903180510 17 236 16.1 25.7 0.00 1.04 1.04 90 1006.1
20260903180028 17 263 14.5 25.7 0.00 1.04 1.04 90 1006.0
20260903175512 17 257 12.9 30.6 0.00 1.04 1.04 90 1006.0
20260903175015 17 259 17.7 30.6 0.00 1.04 1.04 90 1006.0
20260903174529 17 259 11.3 25.7 0.00 1.04 1.04 90 1006.0
20260903174016 17 255 11.3 22.5 0.00 1.04 1.04 90 1006.0
20260903173503 17 244 14.5 22.5 0.00 1.04 1.04 89 1006.0
20260903173008 17 218 14.5 22.5 0.00 1.04 1.04 89 1005.9
20260903172508 17 238 14.5 20.9 0.00 1.04 1.04 89 1005.9
20260903172008 18 275 14.5 29.0 0.00 1.04 1.04 89 1005.9
20260903171525 18 246 14.5 29.0 0.00 1.04 1.04 89 1005.8
20260903171010 18 257 12.9 25.7 0.00 1.04 1.04 89 1005.9
20260903170513 18 245 17.7 22.5 0.00 1.04 1.04 90 1005.8
20260903170023 18 232 14.5 22.5 0.00 1.04 1.04 90 1005.9
20260903165514 18 237 16.1 22.5 0.00 1.04 1.04 89 1005.8
20260903165016 18 244 12.9 22.5 0.00 1.04 1.04 89 1005.7
20260903164530 18 180 16.1 24.1 0.00 1.04 1.04 89 1005.7
20260903164019 18 248 12.9 30.6 0.00 1.04 1.04 89 1005.7
20260903163508 18 244 16.1 30.6 0.00 1.04 1.04 90 1005.8
20260903163016 18 251 14.5 27.4 0.00 1.04 1.04 91 1005.7
20260903162507 18 245 16.1 27.4 0.00 1.04 1.04 91 1005.7
20260903162010 18 241 14.5 33.8 0.00 1.04 1.04 91 1005.7
20260903161525 18 240 17.7 33.8 0.00 1.04 1.04 91 1005.8
20260903161010 18 246 16.1 27.4 0.00 1.04 1.04 92 1005.7
20260903160515 18 261 14.5 33.8 0.00 1.04 1.04 91 1005.8
20260903160029 18 245 16.1 33.8 0.00 1.04 1.04 91 1005.7
20260903155516 18 252 16.1 25.7 0.00 1.04 1.04 91 1005.7
20260903155014 18 252 12.9 29.0 0.00 1.04 1.04 91 1005.8
20260903154530 18 260 14.5 29.0 0.20 1.04 1.04 92 1005.9
20260903154005 18 226 16.1 27.4 0.20 1.04 1.04 92 1005.9
20260903153506 18 229 14.5 24.1 0.20 1.04 1.04 92 1005.9
20260903153012 18 234 12.9 24.1 0.20 1.04 1.04 92 1006.0
20260903152510 18 256 12.9 22.5 0.20 1.04 1.04 93 1006.0
20260903152012 18 215 9.7 22.5 0.20 1.04 1.04 93 1006.0
20260903151519 18 281 11.3 22.5 0.20 1.04 1.04 94 1006.1
20260903151011 17 149 4.8 12.9 0.20 1.04 1.04 94 1006.2
20260903150514 17 222 4.8 11.3 0.20 1.04 1.04 94 1006.3
20260903150034 17 180 4.8 9.7 0.20 1.04 1.04 93 1006.2
20260903145520 17 179 3.2 11.3 0.20 1.04 1.04 93 1006.3
20260903145015 17 147 6.4 11.3 0.18 1.02 1.02 93 1006.4
20260903144530 17 225 4.8 11.3 0.00 0.84 0.84 93 1006.6
20260903144008 17 202 4.8 11.3 0.00 0.84 0.84 93 1006.5
20260903143508 16 162 3.2 12.9 0.00 0.84 0.84 93 1006.6
20260903143015 16 165 8.0 12.9 0.00 0.84 0.84 93 1006.6
20260903142512 16 224 4.8 14.5 0.00 0.84 0.84 93 1006.7
20260903142016 16 193 6.4 14.5 0.00 0.84 0.84 93 1006.8
20260903141521 16 178 6.4 11.3 0.00 0.84 0.84 93 1006.8
20260903141013 16 194 4.8 9.7 0.00 0.84 0.84 93 1006.9
20260903140515 16 209 4.8 17.7 0.00 0.84 0.84 93 1007.0
20260903140035 16 165 4.8 17.7 0.00 0.84 0.84 93 1006.9
20260903135516 16 178 6.4 12.9 0.00 0.84 0.84 93 1006.8
20260903135015 16 195 4.8 12.9 0.00 0.84 0.84 93 1007.0
20260903134540 16 226 6.4 12.9 0.00 0.84 0.84 93 1007.1
20260903134010 16 163 8.0 12.9 0.00 0.84 0.84 93 1007.2
20260903133510 16 199 3.2 11.3 0.00 0.84 0.84 93 1007.2
20260903133020 16 151 6.4 16.1 0.00 0.89 0.84 93 1007.2
20260903132514 16 182 4.8 16.1 0.00 0.89 0.84 93 1007.1
20260903132012 16 165 8.0 16.1 0.00 0.94 0.84 93 1007.3
20260903131526 16 260 8.0 16.1 0.00 0.94 0.84 93 1007.3
20260903131016 16 265 6.4 14.5 0.00 0.94 0.84 93 1007.3
20260903130519 16 232 6.4 14.5 0.00 0.94 0.84 93 1007.3
20260903130030 16 213 4.8 14.5 0.00 0.94 0.84 93 1007.4
20260903125516 16 194 4.8 14.5 0.00 0.94 0.84 93 1007.4
20260903125017 16 210 6.4 16.1 0.00 0.94 0.84 93 1007.4
20260903124514 16 171 6.4 16.1 0.00 0.94 0.84 93 1007.5
20260903124008 16 196 9.7 14.5 0.00 0.94 0.84 94 1007.6
20260903123511 16 204 6.4 12.9 0.00 0.94 0.84 94 1007.6
20260903123024 16 216 4.8 14.5 0.00 0.94 0.84 94 1007.7
20260903122512 16 186 8.0 14.5 0.00 0.94 0.84 94 1007.8
20260903122017 16 188 3.2 12.9 0.00 0.94 0.84 94 1007.7
20260903121540 16 190 4.8 12.9 0.00 0.94 0.84 94 1007.8
20260903121019 16 219 3.2 11.3 0.00 0.94 0.81 94 1007.8
20260903120517 16 206 4.8 12.9 0.00 0.94 0.81 94 1007.9
20260903120030 16 188 4.8 16.1 0.00 0.94 0.81 94 1008.0
20260903115517 16 188 4.8 16.1 0.00 0.94 0.81 94 1008.1
20260903115016 15 192 8.0 12.9 0.03 0.94 0.81 94 1008.1
20260903114519 15 148 4.8 16.1 0.03 0.94 0.81 94 1008.1
20260903114010 15 163 6.4 16.1 0.03 0.94 0.81 94 1008.2
20260903113513 15 163 8.0 16.1 0.03 0.94 0.81 94 1008.2
20260903113027 15 169 3.2 16.1 0.05 0.94 0.81 94 1008.4
20260903112516 15 216 9.7 14.5 0.05 0.94 0.81 93 1008.3
20260903112015 15 180 8.0 14.5 0.05 0.94 0.81 93 1008.5
20260903111529 15 161 8.0 14.5 0.08 0.94 0.81 94 1008.5
20260903111018 15 157 8.0 14.5 0.05 0.91 0.79 93 1008.6
20260903110519 15 139 8.0 14.5 0.05 0.91 0.79 93 1008.7
20260903110033 15 146 4.8 11.3 0.08 0.91 0.79 93 1008.8
20260903105517 15 169 4.8 11.3 0.08 0.91 0.79 93 1008.8
20260903105009 15 130 4.8 11.3 0.08 0.89 0.76 93 1008.8
20260903104525 15 153 4.8 11.3 0.13 0.89 0.76 93 1008.9
20260903104012 15 167 4.8 16.1 0.20 0.89 0.76 93 1009.0
20260903103514 15 152 8.0 16.1 0.23 0.89 0.76 93 1009.0
20260903103028 15 142 6.4 17.7 0.23 0.86 0.74 93 1009.1
20260903102514 15 144 6.4 17.7 0.25 0.86 0.74 93 1009.2
20260903102017 15 150 8.0 14.5 0.28 0.86 0.74 93 1009.2
20260903101532 15 150 6.4 16.1 0.30 0.84 0.74 94 1009.4
20260903101018 15 165 8.0 16.1 0.30 0.84 0.74 93 1009.5
20260903100516 15 144 4.8 12.9 0.30 0.84 0.74 93 1009.7
20260903100034 15 175 3.2 14.5 0.30 0.84 0.71 93 1009.8
20260903095525 15 147 8.0 14.5 0.28 0.81 0.69 93 1009.9
20260903095019 15 180 6.4 14.5 0.28 0.79 0.66 93 1010.1
20260903094524 15 148 6.4 14.5 0.28 0.74 0.64 93 1010.1
20260903094014 15 164 6.4 14.5 0.23 0.66 0.56 93 1010.2
20260903093516 15 173 4.8 14.5 0.23 0.64 0.53 93 1010.4
20260903093029 15 163 8.0 11.3 0.20 0.64 0.51 93 1010.4
20260903092518 15 169 3.2 9.7 0.20 0.61 0.48 93 1010.5
20260903092018 15 207 4.8 9.7 0.18 0.56 0.46 93 1010.6
20260903091546 15 238 3.2 9.7 0.15 0.53 0.41 93 1010.6
20260903091016 15 173 3.2 8.0 0.15 0.53 0.41 93 1010.6
20260903090503 15 178 4.8 12.9 0.18 0.53 0.41 93 1010.7
20260903090006 15 177 6.4 12.9 0.15 0.51 0.38 93 1010.8
20260903085502 15 211 3.2 19.3 0.15 0.51 0.38 92 1010.7
20260903085006 15 173 8.0 19.3 0.18 0.51 0.38 92 1010.9
20260903084512 15 175 12.9 19.3 0.13 0.46 0.36 92 1010.9
20260903084008 16 171 6.4 12.9 0.08 0.43 0.30 93 1011.0
20260903083504 16 199 4.8 12.9 0.08 0.41 0.28 93 1011.0
20260903083006 16 183 6.4 9.7 0.08 0.41 0.28 93 1011.0
20260903082503 16 192 4.8 9.7 0.08 0.38 0.28 93 1011.0
20260903082004 16 148 3.2 9.7 0.08 0.38 0.28 93 1011.1
20260903081505 16 159 4.8 11.3 0.05 0.36 0.25 93 1011.1
20260903081003 16 137 6.4 11.3 0.05 0.36 0.25 93 1011.2
20260903080504 16 169 4.8 11.3 0.03 0.36 0.23 93 1011.2
20260903080006 16 151 3.2 11.3 0.03 0.36 0.23 93 1011.2
20260903075506 15 176 4.8 9.7 0.03 0.36 0.23 93 1011.3
20260903075008 16 190 4.8 9.7 0.00 0.33 0.20 94 1011.4
20260903074506 15 171 3.2 9.7 0.00 0.33 0.20 94 1011.4
20260903074004 15 190 4.8 9.7 0.00 0.33 0.20 94 1011.4
20260903073504 15 208 1.6 9.7 0.00 0.30 0.18 94 1011.4
20260903073008 15 197 4.8 9.7 0.00 0.30 0.18 94 1011.4
20260903072503 15 188 3.2 9.7 0.00 0.30 0.18 94 1011.5
20260903072004 15 153 3.2 9.7 0.00 0.30 0.18 94 1011.5
20260903071507 15 195 3.2 9.7 0.00 0.30 0.18 94 1011.6
20260903071006 15 162 3.2 9.7 0.00 0.30 0.18 94 1011.6
20260903070507 15 229 6.4 9.7 0.00 0.30 0.18 94 1011.6
20260903070008 15 148 3.2 9.7 0.00 0.30 0.18 94 1011.6
20260903065504 15 221 1.6 9.7 0.00 0.30 0.18 94 1011.7
20260903065006 15 189 4.8 9.7 0.00 0.30 0.18 94 1011.7
20260903064508 15 228 3.2 6.4 0.00 0.30 0.18 94 1011.8
20260903064003 15 219 3.2 6.4 0.00 0.30 0.18 94 1011.9
20260903063504 15 222 1.6 6.4 0.00 0.30 0.18 94 1012.0
20260903063007 15 153 1.6 6.4 0.00 0.30 0.18 94 1012.0
20260903062506 15 165 3.2 6.4 0.00 0.30 0.18 94 1012.0
20260903062007 15 169 1.6 4.8 0.00 0.30 0.18 94 1012.1
20260903061507 15 139 1.6 3.2 0.00 0.30 0.18 94 1012.2
20260903061008 14 134 1.6 4.8 0.00 0.30 0.18 94 1012.2
20260903060507 14 146 1.6 4.8 0.00 0.30 0.18 94 1012.3
20260903060008 14 159 1.6 3.2 0.00 0.30 0.18 94 1012.3
20260903055504 14 173 0.0 3.2 0.00 0.30 0.18 94 1012.4
20260903055006 14 173 0.0 3.2 0.03 0.30 0.18 94 1012.4
20260903054512 13 172 0.0 3.2 0.03 0.30 0.18 94 1012.5
20260903054008 13 182 0.0 3.2 0.03 0.30 0.18 94 1012.5
20260903053508 13 182 1.6 1.6 0.03 0.30 0.18 94 1012.5
20260903053010 13 182 1.6 1.6 0.03 0.30 0.18 94 1012.5
20260903052509 13 182 1.6 3.2 0.05 0.30 0.18 94 1012.6
20260903052007 13 182 0.0 3.2 0.05 0.30 0.18 94 1012.6
20260903051509 13 182 0.0 3.2 0.08 0.30 0.18 94 1012.7
20260903051008 13 182 1.6 3.2 0.05 0.28 0.18 94 1012.8
20260903050511 13 182 0.0 4.8 0.08 0.28 0.18 94 1012.8
20260903050012 13 182 1.6 4.8 0.10 0.28 0.18 94 1012.9
20260903045508 13 175 1.6 4.8 0.10 0.28 0.18 94 1012.9
20260903045009 13 169 1.6 4.8 0.15 0.28 0.15 94 1012.9
20260903044508 13 168 3.2 4.8 0.15 0.28 0.15 94 1012.9
20260903044005 13 177 1.6 4.8 0.15 0.28 0.15 94 1012.9
20260903043509 13 217 1.6 6.4 0.15 0.28 0.15 94 1013.0
20260903043013 13 217 1.6 6.4 0.15 0.28 0.15 94 1012.9
20260903042508 13 199 3.2 6.4 0.13 0.25 0.13 94 1013.1
20260903042010 13 192 3.2 8.0 0.13 0.25 0.13 94 1013.1
20260903041513 13 172 1.6 8.0 0.10 0.23 0.10 94 1013.1
20260903041009 13 181 1.6 3.2 0.10 0.23 0.10 94 1013.1
20260903040509 13 193 0.0 3.2 0.08 0.20 0.08 94 1013.2
20260903040011 13 191 1.6 3.2 0.05 0.18 0.05 94 1013.3
20260903035507 13 251 0.0 3.2 0.05 0.18 0.05 94 1013.3
20260903035008 13 232 0.0 4.8 0.00 0.10 0.00 94 1013.3
20260903034518 13 229 1.6 4.8 0.00 0.10 0.00 93 1013.3
20260903034008 13 210 3.2 4.8 0.00 0.10 0.00 94 1013.3
20260903033509 13 191 1.6 4.8 0.00 0.10 0.00 94 1013.3
20260903033012 13 228 1.6 4.8 0.00 0.10 0.00 94 1013.4
20260903032511 13 189 1.6 3.2 0.00 0.10 0.00 93 1013.4
20260903032010 12 189 1.6 3.2 0.00 0.10 0.00 93 1013.4
20260903031517 12 189 1.6 3.2 0.00 0.10 0.00 93 1013.5
20260903031010 12 189 1.6 3.2 0.00 0.10 0.00 93 1013.6
20260903030508 12 189 1.6 3.2 0.00 0.10 0.00 93 1013.6
20260903030014 12 189 1.6 3.2 0.00 0.10 0.00 93 1013.6
20260903025508 12 189 1.6 3.2 0.00 0.10 0.00 93 1013.6
20260903025005 12 189 1.6 3.2 0.00 0.10 0.00 93 1013.6
20260903024511 12 189 1.6 3.2 0.00 0.10 0.00 93 1013.7
20260903024008 12 189 0.0 3.2 0.00 0.10 0.00 93 1013.7
20260903023508 12 189 0.0 1.6 0.00 0.10 0.00 93 1013.7
20260903023020 12 189 1.6 1.6 0.00 0.10 0.00 93 1013.7
20260903022511 12 189 0.0 1.6 0.00 0.10 0.00 93 1013.8
20260903022010 12 189 1.6 3.2 0.00 0.10 0.00 93 1013.8
20260903021515 12 188 0.0 3.2 0.00 0.10 0.00 92 1013.9
20260903021011 12 189 0.0 3.2 0.00 0.10 0.00 92 1014.0
20260903020512 12 189 1.6 3.2 0.00 0.10 0.00 92 1014.0
20260903020033 12 189 0.0 3.2 0.00 0.10 0.00 92 1014.1
20260903015510 12 188 0.0 3.2 0.00 0.10 0.00 92 1014.2
20260903015011 12 189 1.6 3.2 0.00 0.10 0.00 92 1014.1
20260903014513 12 189 1.6 3.2 0.00 0.10 0.00 92 1014.2
20260903014009 12 189 0.0 3.2 0.00 0.10 0.00 92 1014.2
20260903013509 13 211 0.0 1.6 0.00 0.10 0.00 92 1014.2
20260903013020 13 211 0.0 1.6 0.00 0.10 0.00 91 1014.3
20260903012510 13 211 1.6 1.6 0.00 0.10 0.00 91 1014.3
20260903012012 13 211 1.6 1.6 0.00 0.10 0.00 91 1014.3
20260903011518 13 216 1.6 1.6 0.00 0.10 0.00 91 1014.3
20260903011015 13 216 1.6 1.6 0.00 0.10 0.00 91 1014.2
20260903010511 13 215 0.0 3.2 0.00 0.10 0.00 91 1014.3
20260903010020 13 215 1.6 4.8 0.00 0.10 0.00 1014.3
20260903005511 13 221 1.6 8.0 0.00 0.10 0.00 1014.3
20260903005009 13 237 3.2 9.7 0.00 0.10 0.00 91 1014.3
20260903004521 13 261 4.8 9.7 0.00 0.10 0.00 91 1014.3
20260903004012 13 250 4.8 6.4 0.00 0.10 0.00 91 1014.3
20260903003513 13 263 4.8 11.3 0.00 0.10 0.00 91 1014.4
20260903003020 13 240 4.8 11.3 0.00 0.10 0.00 91 1014.3
20260903002517 13 248 6.4 12.9 0.00 0.10 0.00 91 1014.3
20260903002012 13 255 8.0 12.9 0.00 0.10 0.00 92 1014.4
20260903001520 13 258 6.4 12.9 0.00 0.10 0.00 92 1014.4
20260903001010 13 248 9.7 14.5 0.00 0.10 0.00 92 1014.4
20260903000511 13 278 8.0 14.5 0.00 0.10 0.00 91 1014.4
20260903000022 12 246 6.4 11.3 0.00 0.10 0.00 91 1014.4
20260902235511 13 250 4.8 9.7 0.00 0.10 0.00 91 1014.4
20260902235010 13 276 4.8 11.3 0.00 0.10 0.00 91 1014.4
20260902234523 13 275 4.8 12.9 0.00 0.10 0.00 91 1014.5
20260902234013 13 272 4.8 12.9 0.00 0.10 0.00 91 1014.5
20260902233512 13 271 4.8 16.1 0.00 0.10 0.00 91 1014.5
20260902233024 13 257 6.4 16.1 0.00 0.10 0.00 91 1014.5
20260902232514 13 246 4.8 12.9 0.00 0.13 0.00 1014.5
20260902232010 13 273 8.0 16.1 0.00 0.13 0.00 1014.5
20260902231525 13 268 8.0 16.1 0.00 0.13 0.00 92 1014.5
20260902231013 13 267 9.7 16.1 0.00 0.13 0.00 92 1014.5
20260902230514 13 252 8.0 14.5 0.00 0.13 0.00 92 1014.5
20260902230021 13 270 6.4 14.5 0.00 0.13 0.00 92 1014.5
20260902225513 13 253 6.4 16.1 0.00 0.13 0.00 92 1014.6
20260902225010 13 226 6.4 16.1 0.00 0.13 0.00 92 1014.6
20260902224523 13 256 4.8 11.3 0.00 0.13 0.00 92 1014.6
20260902224012 13 246 6.4 11.3 0.00 0.15 0.00 92 1014.6
20260902223512 13 248 6.4 9.7 0.00 0.18 0.00 92 1014.5
20260902223047 13 235 4.8 11.3 0.00 0.18 0.00 92 1014.5
20260902222514 13 292 4.8 14.5 0.00 0.18 0.00 92 1014.5
20260902222015 13 267 6.4 14.5 0.00 0.18 0.00 92 1014.5
20260902221524 13 262 6.4 16.1 0.00 0.18 0.00 92 1014.5
20260902221011 13 252 8.0 17.7 0.00 0.18 0.00 92 1014.5